Regional Weather Roundup
Issued by NWS Mt. Holly, NJ

Home | Current Version | Previous Version | Text Only | Print | Product List | Glossary On
Versions: 1 2 3 4 5 6 7 8 9 10 11 12 13 14 15 16 17 18 19 20 21 22 23 24 25 26 27
000
ASUS41 KPHI 300812
RWRPHI

REGIONAL WEATHER ROUNDUP
NATIONAL WEATHER SERVICE MOUNT HOLLY NJ
400 AM EDT MON MAY 30 2016

NOTE:  "FAIR" INDICATES FEW OR NO CLOUDS BELOW 12,000 FEET WITH NO
SIGNIFICANT WEATHER AND/OR OBSTRUCTIONS TO VISIBILITY.

 * = STATION DOES NOT REPORT PRECIPITATION (E.G. RAIN, SNOW, ETC.)
        OR FOG.

NJZ015>026-300900-
SOUTHERN NEW JERSEY

CITY           SKY/WX    TMP DP  RH WIND       PRES   REMARKS
POMONA         CLOUDY    72  71  97 S12       30.00F
WILDWOOD*      CLOUDY   N/A N/A N/A S7        30.01F
MILLVILLE      CLOUDY    72  70  93 VRB6      30.00F
WRIGHTSTOWN    CLOUDY    72  72 100 SW9       29.96F
MOUNT HOLLY    CLOUDY    68  67  96 CALM      29.98F
TRENTON        LGT RAIN  68  66  93 N3        29.99F

$$
NJZ001>014-300900-
NORTHERN NEW JERSEY

CITY           SKY/WX    TMP DP  RH WIND       PRES   REMARKS
SUSSEX         LGT RAIN  66  62  87 CALM      30.01F
ANDOVER*         N/A     66  64  93 CALM      30.02S
MORRISTOWN     CLOUDY    68  66  94 CALM      30.00F
NEWARK         LGT RAIN  70  68  93 CALM      29.99F FOG
TETERBORO      RAIN      71  67  87 W6        29.98F FOG
CALDWELL       CLOUDY    68  65  90 CALM      30.00F
SOMERVILLE     CLOUDY    67  65  93 CALM      29.98F
ALLAIRE*       CLOUDY    72  70  93 S10G16    30.01F
TOMS RIVER*    CLOUDY    72  68  88 S9        30.00F

$$
PAZ043-044-047-054-055-060>062-066>071-300900-
EASTERN PENNSYLVANIA

CITY           SKY/WX    TMP DP  RH WIND       PRES   REMARKS
PHILADELPHIA   LGT RAIN  71  68  90 CALM      29.99F FOG
NORTH PHILA    HVY RAIN  68  67  96 NW6       30.01S VSB 1/2
BLUE BELL*     CLOUDY    66  66 100 CALM      29.99F
DOYLESTOWN     CLOUDY    66  65  96 CALM      30.00F
QUAKERTOWN*    CLOUDY    68  68 100 CALM      30.01F
PERKASIE*      CLOUDY    66  66 100 CALM      30.01F
POTTSTOWN      LGT RAIN  67  67 100 CALM      30.01F FOG
LANCASTER      LGT RAIN  65  64  97 W3        30.01S
COATESVILLE    DRIZZLE   66  66 100 NW7       30.03S
READING        RAIN      66  64  93 W5        30.00S FOG
ALLENTOWN      CLOUDY    68  64  87 NE7       30.00S
MOUNT POCONO   LGT RAIN  61  32  33 N3        30.04F
HAZLETON       HVY RAIN  61  59  94 CALM      30.07F
LEHIGHTON      RAIN      66  64  94 CALM      30.02S
WILKES BARRE   LGT RAIN  64  62  93 CALM      30.03S FOG

$$
DEZALL-MDZ008-012-015-019-020-300900-
DELAWARE AND EASTERN MARYLAND

CITY           SKY/WX    TMP DP  RH WIND       PRES   REMARKS
WILMINGTON     LGT RAIN  70  70 100 CALM      30.00F
DOVER          CLOUDY    73  73 100 S10       29.98F
GEORGETOWN     LGT RAIN  73  71  93 S8        30.01F
EASTON         CLOUDY    73  73 100 CALM      30.03S
PATUXENT       CLOUDY    72  70  93 S5        29.99S FOG
OCEAN CITY     LGT RAIN  71  70  96 SW8       30.01F
WALLOPS ISLAND LGT RAIN  70  68  93 S8        30.01F
CAMBRIDGE      CLOUDY    72  72 100 S3        29.99S
SALISBURY      LGT RAIN  72  71  97 S6        30.00F FOG

$$
PAZ001-021-NYZ056-072-MDZ011-DCZ001-300900-
OTHER NEARBY LOCATIONS

CITY           SKY/WX    TMP DP  RH WIND       PRES   REMARKS
HARRISBURG     LGT RAIN  65  62  90 CALM      30.00F
STATE COLLEGE  CLOUDY    61  58  90 W6        30.02S
WILLIAMSPORT   CLOUDY    69  60  73 VRB3      29.99S
BINGHAMTON     LGT RAIN  64  59  83 S6        30.01S
NEW YORK CITY  RAIN      70  69  97 W3        30.02F FOG
BALTIMORE      MOCLDY    67  65  93 NW3       30.00F
WASHINGTON DC  CLOUDY    70  64  81 N7        30.02F

$$




USA.gov is the U.S. government's official web portal to all federal, state and local government web resources and services.